WNISAT-1

Last updated on Sun Apr 12 2026 00:03:55 GMT+0000 (Coordinated Universal Time)

1 39423U 13066H 26101.36867348 .00000826 00000+0 15784-3 0 9995 2 39423 97.7107 255.3049 0164673 82.5009 279.4865 14.57980932656997
UTC large
Height (km)
Speed (km/s)
/
Latitude / Longitude
Inclination (degrees)
Orbital Period (minutes)
Azimuth
Elevation
Range (km)
Doppler Factor

Next 0 passes for location: London (51.5072 / 0.1276)

Sorry there are no passes over London.
WNISAT-1